Time,TemperatureF,DewpointF,PressureIn,WindDirection,WindDirectionDegrees,WindSpeedMPH,WindSpeedGustMPH,Humidity,HourlyPrecipIn,Conditions,Clouds,dailyrainin,SoftwareType,DateUTC
2013-05-15 00:00:00,70.1,44.0,29.47,NW,317,0.0,0.0,39,0.00,,,0.00,Wunderground v.1.15,2013-05-15 05:00:00,
2013-05-15 00:06:00,69.7,43.6,29.48,West,270,0.0,0.0,39,0.00,,,0.00,Wunderground v.1.15,2013-05-15 05:06:00,
2013-05-15 00:11:00,69.0,43.7,29.48,West,277,0.0,0.0,40,0.00,,,0.00,Wunderground v.1.15,2013-05-15 05:11:00,
2013-05-15 00:17:00,68.8,42.1,29.48,West,271,0.0,0.0,38,0.00,,,0.00,Wunderground v.1.15,2013-05-15 05:17:00,
2013-05-15 00:23:00,68.2,41.6,29.48,West,279,0.0,0.0,38,0.00,,,0.00,Wunderground v.1.15,2013-05-15 05:23:00,
2013-05-15 00:28:00,68.1,42.2,29.49,WNW,286,0.0,0.0,39,0.00,,,0.00,Wunderground v.1.15,2013-05-15 05:28:00,
2013-05-15 00:34:00,67.6,41.7,29.49,West,264,0.0,0.0,39,0.00,,,0.00,Wunderground v.1.15,2013-05-15 05:34:00,
2013-05-15 00:40:00,66.9,43.0,29.49,West,266,0.0,0.0,42,0.00,,,0.00,Wunderground v.1.15,2013-05-15 05:40:00,
2013-05-15 00:46:00,66.5,43.3,29.49,West,263,0.0,0.0,43,0.00,,,0.00,Wunderground v.1.15,2013-05-15 05:46:00,
2013-05-15 00:51:00,66.3,42.5,29.49,West,270,0.0,0.0,42,0.00,,,0.00,Wunderground v.1.15,2013-05-15 05:51:00,
2013-05-15 00:57:00,66.4,43.2,29.50,West,266,0.0,0.0,43,0.00,,,0.00,Wunderground v.1.15,2013-05-15 05:57:00,
2013-05-15 01:03:00,66.4,43.2,29.50,West,281,0.0,0.0,43,0.00,,,0.00,Wunderground v.1.15,2013-05-15 06:03:00,
2013-05-15 01:09:00,66.1,43.5,29.50,WNW,292,0.0,0.0,44,0.00,,,0.00,Wunderground v.1.15,2013-05-15 06:09:00,
2013-05-15 01:15:00,65.6,43.7,29.50,West,278,0.0,0.0,45,0.00,,,0.00,Wunderground v.1.15,2013-05-15 06:15:00,
2013-05-15 01:21:00,64.9,43.0,29.50,West,267,0.0,0.0,45,0.00,,,0.00,Wunderground v.1.15,2013-05-15 06:21:00,
2013-05-15 01:27:00,64.9,43.0,29.51,West,279,0.0,0.0,45,0.00,,,0.00,Wunderground v.1.15,2013-05-15 06:27:00,
2013-05-15 01:32:00,64.5,43.3,29.51,West,277,0.0,0.0,46,0.00,,,0.00,Wunderground v.1.15,2013-05-15 06:32:00,
2013-05-15 01:38:00,64.3,43.1,29.52,West,281,0.0,0.0,46,0.00,,,0.00,Wunderground v.1.15,2013-05-15 06:38:00,
2013-05-15 01:44:00,63.9,43.8,29.52,West,273,0.0,0.0,48,0.00,,,0.00,Wunderground v.1.15,2013-05-15 06:44:00,
2013-05-15 01:49:00,63.9,43.3,29.52,West,275,0.0,0.0,47,0.00,,,0.00,Wunderground v.1.15,2013-05-15 06:49:00,
2013-05-15 01:55:00,64.1,44.0,29.52,WNW,290,0.0,0.0,48,0.00,,,0.00,Wunderground v.1.15,2013-05-15 06:55:00,
2013-05-15 02:00:00,64.4,43.7,29.53,WNW,296,0.0,0.0,47,0.00,,,0.00,Wunderground v.1.15,2013-05-15 07:00:00,
2013-05-15 02:06:00,65.1,43.8,29.53,West,259,0.0,0.0,46,0.00,,,0.00,Wunderground v.1.15,2013-05-15 07:06:00,
2013-05-15 02:11:00,65.3,44.0,29.53,WNW,302,0.0,0.0,46,0.00,,,0.00,Wunderground v.1.15,2013-05-15 07:11:00,
2013-05-15 02:16:00,65.4,44.6,29.53,NW,325,0.0,0.0,47,0.00,,,0.00,Wunderground v.1.15,2013-05-15 07:16:00,
2013-05-15 02:22:00,65.0,45.4,29.53,WNW,291,0.0,0.0,49,0.00,,,0.00,Wunderground v.1.15,2013-05-15 07:22:00,
2013-05-15 02:28:00,64.7,44.5,29.54,WNW,284,0.0,0.0,48,0.00,,,0.00,Wunderground v.1.15,2013-05-15 07:28:00,
2013-05-15 02:33:00,64.4,44.8,29.54,NW,314,0.0,0.0,49,0.00,,,0.00,Wunderground v.1.15,2013-05-15 07:33:00,
2013-05-15 02:39:00,64.9,45.3,29.54,NW,312,0.0,0.0,49,0.00,,,0.00,Wunderground v.1.15,2013-05-15 07:39:00,
2013-05-15 02:45:00,65.1,46.0,29.55,NW,304,0.0,0.0,50,0.00,,,0.00,Wunderground v.1.15,2013-05-15 07:45:00,
2013-05-15 02:51:00,65.0,45.9,29.55,NW,315,0.0,0.0,50,0.00,,,0.00,Wunderground v.1.15,2013-05-15 07:51:00,
2013-05-15 02:57:00,64.9,46.8,29.55,NW,307,0.0,0.0,52,0.00,,,0.00,Wunderground v.1.15,2013-05-15 07:57:00,
2013-05-15 03:02:00,64.5,46.5,29.55,West,279,0.0,0.0,52,0.00,,,0.00,Wunderground v.1.15,2013-05-15 08:02:00,
2013-05-15 03:08:00,64.3,46.8,29.55,NW,318,0.0,0.0,53,0.00,,,0.00,Wunderground v.1.15,2013-05-15 08:08:00,
2013-05-15 03:13:00,64.2,47.2,29.55,WNW,282,0.0,0.0,54,0.00,,,0.00,Wunderground v.1.15,2013-05-15 08:13:00,
2013-05-15 03:18:00,63.8,47.3,29.56,NW,310,0.0,0.0,55,0.00,,,0.00,Wunderground v.1.15,2013-05-15 08:18:00,
2013-05-15 04:25:00,61.4,47.4,29.59,NW,311,0.0,0.0,60,0.00,,,0.00,Wunderground v.1.15,2013-05-15 09:25:00,
2013-05-15 04:30:00,61.3,47.7,29.59,WNW,288,0.0,0.0,61,0.00,,,0.00,Wunderground v.1.15,2013-05-15 09:30:00,
2013-05-15 04:35:00,61.1,47.5,29.59,NNW,342,0.0,0.0,61,0.00,,,0.00,Wunderground v.1.15,2013-05-15 09:35:00,
2013-05-15 04:41:00,60.8,47.3,29.60,NW,304,0.0,0.0,61,0.00,,,0.00,Wunderground v.1.15,2013-05-15 09:41:00,
2013-05-15 04:46:00,60.5,47.4,29.60,NNW,329,0.0,0.0,62,0.00,,,0.00,Wunderground v.1.15,2013-05-15 09:46:00,
2013-05-15 04:52:00,60.4,47.7,29.60,WNW,298,0.0,0.0,63,0.00,,,0.00,Wunderground v.1.15,2013-05-15 09:52:00,
2013-05-15 04:57:00,60.4,47.7,29.61,NW,325,0.0,0.0,63,0.00,,,0.00,Wunderground v.1.15,2013-05-15 09:57:00,
2013-05-15 05:03:00,60.2,48.0,29.62,NW,323,0.0,0.0,64,0.00,,,0.00,Wunderground v.1.15,2013-05-15 10:03:00,
2013-05-15 05:08:00,60.0,47.8,29.62,WNW,302,0.0,0.0,64,0.00,,,0.00,Wunderground v.1.15,2013-05-15 10:08:00,
2013-05-15 05:14:00,59.8,47.6,29.62,NNW,329,0.0,0.0,64,0.00,,,0.00,Wunderground v.1.15,2013-05-15 10:14:00,
2013-05-15 05:19:00,59.4,47.6,29.63,North,349,0.0,0.0,65,0.00,,,0.00,Wunderground v.1.15,2013-05-15 10:19:00,
2013-05-15 05:25:00,59.0,47.7,29.63,NW,314,0.0,0.0,66,0.00,,,0.00,Wunderground v.1.15,2013-05-15 10:25:00,
2013-05-15 05:30:00,58.6,47.7,29.63,NW,311,0.0,0.0,67,0.00,,,0.00,Wunderground v.1.15,2013-05-15 10:30:00,
2013-05-15 05:35:00,58.3,47.4,29.64,NNW,346,0.0,0.0,67,0.00,,,0.00,Wunderground v.1.15,2013-05-15 10:35:00,
2013-05-15 05:41:00,58.1,47.6,29.64,NW,325,0.0,0.0,68,0.00,,,0.00,Wunderground v.1.15,2013-05-15 10:41:00,
2013-05-15 05:46:00,58.0,47.5,29.64,West,275,0.0,0.0,68,0.00,,,0.00,Wunderground v.1.15,2013-05-15 10:46:00,
2013-05-15 05:52:00,57.6,47.5,29.65,West,276,0.0,0.0,69,0.00,,,0.00,Wunderground v.1.15,2013-05-15 10:52:00,
2013-05-15 05:58:00,57.4,47.3,29.65,NNW,330,0.0,0.0,69,0.00,,,0.00,Wunderground v.1.15,2013-05-15 10:58:00,
2013-05-15 06:03:00,57.2,47.1,29.66,NW,320,0.0,0.0,69,0.00,,,0.00,Wunderground v.1.15,2013-05-15 11:03:00,
2013-05-15 06:09:00,57.2,47.1,29.66,WNW,293,0.0,0.0,69,0.00,,,0.00,Wunderground v.1.15,2013-05-15 11:09:00,
2013-05-15 06:14:00,57.3,47.2,29.66,NNW,338,0.0,0.0,69,0.00,,,0.00,Wunderground v.1.15,2013-05-15 11:14:00,
2013-05-15 06:20:00,57.3,47.2,29.66,WNW,292,0.0,0.0,69,0.00,,,0.00,Wunderground v.1.15,2013-05-15 11:20:00,
2013-05-15 06:25:00,57.3,47.2,29.67,NW,321,0.0,0.0,69,0.00,,,0.00,Wunderground v.1.15,2013-05-15 11:25:00,
2013-05-15 06:31:00,57.3,46.8,29.67,NNW,328,0.0,0.0,68,0.00,,,0.00,Wunderground v.1.15,2013-05-15 11:31:00,
2013-05-15 06:37:00,57.4,47.3,29.67,NNW,328,0.0,0.0,69,0.00,,,0.00,Wunderground v.1.15,2013-05-15 11:37:00,
2013-05-15 06:43:00,57.6,46.7,29.67,NW,325,0.0,0.0,67,0.00,,,0.00,Wunderground v.1.15,2013-05-15 11:43:00,
2013-05-15 06:48:00,57.8,46.9,29.68,North,351,0.0,0.0,67,0.00,,,0.00,Wunderground v.1.15,2013-05-15 11:48:00,
2013-05-15 06:53:00,57.9,47.0,29.68,North,351,0.0,0.0,67,0.00,,,0.00,Wunderground v.1.15,2013-05-15 11:53:00,
2013-05-15 06:59:00,58.1,46.8,29.68,NNW,337,0.0,0.0,66,0.00,,,0.00,Wunderground v.1.15,2013-05-15 11:59:00,
2013-05-15 07:05:00,58.2,46.9,29.68,NNW,347,0.0,0.0,66,0.00,,,0.00,Wunderground v.1.15,2013-05-15 12:05:00,
2013-05-15 07:10:00,58.3,46.6,29.68,NNW,341,0.0,0.0,65,0.00,,,0.00,Wunderground v.1.15,2013-05-15 12:10:00,
2013-05-15 07:15:00,58.6,46.9,29.69,North,9,0.0,0.0,65,0.00,,,0.00,Wunderground v.1.15,2013-05-15 12:15:00,
2013-05-15 07:21:00,58.8,47.1,29.69,NNW,338,0.0,0.0,65,0.00,,,0.00,Wunderground v.1.15,2013-05-15 12:21:00,
2013-05-15 07:27:00,58.9,46.7,29.69,WNW,288,0.0,0.0,64,0.00,,,0.00,Wunderground v.1.15,2013-05-15 12:27:00,
2013-05-15 07:32:00,59.2,47.0,29.70,NNW,339,0.0,0.0,64,0.00,,,0.00,Wunderground v.1.15,2013-05-15 12:32:00,
2013-05-15 07:38:00,59.5,46.9,29.71,NNW,347,0.0,0.0,63,0.00,,,0.00,Wunderground v.1.15,2013-05-15 12:38:00,
2013-05-15 07:45:00,60.0,46.9,29.71,NNW,331,0.0,0.0,62,0.00,,,0.00,Wunderground v.1.15,2013-05-15 12:45:00,
2013-05-15 07:51:00,60.3,46.8,29.72,NNW,336,0.0,0.0,61,0.00,,,0.00,Wunderground v.1.15,2013-05-15 12:51:00,
2013-05-15 07:57:00,60.5,46.5,29.72,NW,324,0.0,0.0,60,0.00,,,0.00,Wunderground v.1.15,2013-05-15 12:57:00,
2013-05-15 08:03:00,60.7,45.4,29.73,NNW,334,0.0,0.0,57,0.00,,,0.00,Wunderground v.1.15,2013-05-15 13:03:00,
2013-05-15 08:08:00,61.0,45.7,29.74,NW,320,0.0,0.0,57,0.00,,,0.00,Wunderground v.1.15,2013-05-15 13:08:00,
2013-05-15 08:14:00,61.3,45.9,29.74,WNW,296,0.0,0.0,57,0.00,,,0.00,Wunderground v.1.15,2013-05-15 13:14:00,
2013-05-15 08:19:00,61.5,45.7,29.74,NNW,327,0.0,0.0,56,0.00,,,0.00,Wunderground v.1.15,2013-05-15 13:19:00,
2013-05-15 08:25:00,61.9,45.5,29.75,NW,306,0.0,0.0,55,0.00,,,0.00,Wunderground v.1.15,2013-05-15 13:25:00,
2013-05-15 08:30:00,62.3,45.9,29.75,WNW,295,0.0,0.0,55,0.00,,,0.00,Wunderground v.1.15,2013-05-15 13:30:00,
2013-05-15 08:36:00,62.2,46.3,29.75,North,351,0.0,0.0,56,0.00,,,0.00,Wunderground v.1.15,2013-05-15 13:36:00,
2013-05-15 08:41:00,62.6,44.7,29.75,NW,321,0.0,0.0,52,0.00,,,0.00,Wunderground v.1.15,2013-05-15 13:41:00,
2013-05-15 08:47:00,62.8,45.9,29.75,NNW,340,0.0,0.0,54,0.00,,,0.00,Wunderground v.1.15,2013-05-15 13:47:00,
2013-05-15 08:52:00,62.9,46.0,29.75,NW,313,0.0,0.0,54,0.00,,,0.00,Wunderground v.1.15,2013-05-15 13:52:00,
2013-05-15 09:03:00,63.2,45.3,29.76,NW,305,0.0,0.0,52,0.00,,,0.00,Wunderground v.1.15,2013-05-15 14:03:00,
2013-05-15 09:09:00,63.4,44.9,29.76,NW,304,0.0,0.0,51,0.00,,,0.00,Wunderground v.1.15,2013-05-15 14:09:00,
2013-05-15 09:14:00,63.4,44.9,29.76,WNW,286,0.0,0.0,51,0.00,,,0.00,Wunderground v.1.15,2013-05-15 14:14:00,
2013-05-15 09:20:00,63.8,43.7,29.76,NW,316,0.0,0.0,48,0.00,,,0.00,Wunderground v.1.15,2013-05-15 14:20:00,
2013-05-15 09:26:00,64.4,45.3,29.77,NW,320,0.0,0.0,50,0.00,,,0.00,Wunderground v.1.15,2013-05-15 14:26:00,
2013-05-15 09:32:00,64.4,45.3,29.77,NW,326,0.0,0.0,50,0.00,,,0.00,Wunderground v.1.15,2013-05-15 14:32:00,
2013-05-15 09:37:00,64.9,42.5,29.77,NNW,338,0.0,0.0,44,0.00,,,0.00,Wunderground v.1.15,2013-05-15 14:37:00,
2013-05-15 09:44:00,64.5,42.7,29.76,NW,313,0.0,0.0,45,0.00,,,0.00,Wunderground v.1.15,2013-05-15 14:44:00,
2013-05-15 09:50:00,64.8,43.5,29.76,NW,309,0.0,0.0,46,0.00,,,0.00,Wunderground v.1.15,2013-05-15 14:50:00,
2013-05-15 09:55:00,64.9,42.5,29.77,NNW,342,0.0,0.0,44,0.00,,,0.00,Wunderground v.1.15,2013-05-15 14:55:00,
2013-05-15 10:01:00,65.2,42.7,29.76,NNW,330,0.0,0.0,44,0.00,,,0.00,Wunderground v.1.15,2013-05-15 15:01:00,
2013-05-15 10:08:00,65.7,43.2,29.77,NW,313,0.0,0.0,44,0.00,,,0.00,Wunderground v.1.15,2013-05-15 15:08:00,
2013-05-15 10:13:00,66.3,43.7,29.77,NNW,336,0.0,0.0,44,0.00,,,0.00,Wunderground v.1.15,2013-05-15 15:13:00,
2013-05-15 10:18:00,66.4,42.6,29.77,NNW,340,0.0,0.0,42,0.00,,,0.00,Wunderground v.1.15,2013-05-15 15:18:00,
2013-05-15 10:23:00,66.7,42.2,29.78,NNW,327,0.0,0.0,41,0.00,,,0.00,Wunderground v.1.15,2013-05-15 15:23:00,
2013-05-15 10:29:00,67.0,42.5,29.78,NNW,331,0.0,0.0,41,0.00,,,0.00,Wunderground v.1.15,2013-05-15 15:29:00,
2013-05-15 10:34:00,67.2,42.7,29.78,NNW,348,0.0,0.0,41,0.00,,,0.00,Wunderground v.1.15,2013-05-15 15:34:00,
2013-05-15 10:40:00,67.1,42.0,29.78,WNW,303,0.0,0.0,40,0.00,,,0.00,Wunderground v.1.15,2013-05-15 15:40:00,
2013-05-15 10:46:00,67.1,42.6,29.77,NNW,339,0.0,0.0,41,0.00,,,0.00,Wunderground v.1.15,2013-05-15 15:46:00,
2013-05-15 10:52:00,67.7,43.1,29.77,NW,314,0.0,0.0,41,0.00,,,0.00,Wunderground v.1.15,2013-05-15 15:52:00,
2013-05-15 10:58:00,67.7,42.5,29.77,NNW,342,0.0,0.0,40,0.00,,,0.00,Wunderground v.1.15,2013-05-15 15:58:00,
2013-05-15 11:04:00,67.5,41.7,29.77,WNW,289,0.0,0.0,39,0.00,,,0.00,Wunderground v.1.15,2013-05-15 16:04:00,
2013-05-15 11:09:00,67.4,41.6,29.77,NNE,28,0.0,0.0,39,0.00,,,0.00,Wunderground v.1.15,2013-05-15 16:09:00,
2013-05-15 11:15:00,68.3,41.7,29.78,NNW,340,0.0,0.0,38,0.00,,,0.00,Wunderground v.1.15,2013-05-15 16:15:00,
2013-05-15 11:20:00,68.5,41.9,29.77,NW,304,0.0,0.0,38,0.00,,,0.00,Wunderground v.1.15,2013-05-15 16:20:00,
2013-05-15 11:27:00,68.4,41.8,29.76,NNW,333,0.0,0.0,38,0.00,,,0.00,Wunderground v.1.15,2013-05-15 16:27:00,
2013-05-15 11:33:00,68.8,41.5,29.76,North,5,0.0,0.0,37,0.00,,,0.00,Wunderground v.1.15,2013-05-15 16:33:00,
2013-05-15 11:38:00,68.4,41.1,29.76,North,5,0.0,0.0,37,0.00,,,0.00,Wunderground v.1.15,2013-05-15 16:38:00,
2013-05-15 11:44:00,68.3,43.0,29.76,West,273,0.0,0.0,40,0.00,,,0.00,Wunderground v.1.15,2013-05-15 16:44:00,
2013-05-15 11:49:00,68.5,41.2,29.76,WNW,302,0.0,0.0,37,0.00,,,0.00,Wunderground v.1.15,2013-05-15 16:49:00,
2013-05-15 11:54:00,68.3,42.4,29.76,NNW,346,0.0,0.0,39,0.00,,,0.00,Wunderground v.1.15,2013-05-15 16:54:00,
2013-05-15 12:00:00,67.8,41.3,29.76,NW,307,0.0,0.0,38,0.00,,,0.00,Wunderground v.1.15,2013-05-15 17:00:00,
2013-05-15 12:06:00,67.5,41.7,29.75,NNW,328,0.0,0.0,39,0.00,,,0.00,Wunderground v.1.15,2013-05-15 17:06:00,
2013-05-15 12:12:00,67.5,38.9,29.75,NW,315,0.0,0.0,35,0.00,,,0.00,Wunderground v.1.15,2013-05-15 17:12:00,
2013-05-15 12:17:00,67.5,40.3,29.75,NNW,337,0.0,0.0,37,0.00,,,0.00,Wunderground v.1.15,2013-05-15 17:17:00,
2013-05-15 12:23:00,67.6,39.7,29.75,NNW,331,0.0,0.0,36,0.00,,,0.00,Wunderground v.1.15,2013-05-15 17:23:00,
2013-05-15 12:29:00,68.1,41.5,29.75,NW,315,0.0,0.0,38,0.00,,,0.00,Wunderground v.1.15,2013-05-15 17:29:00,
2013-05-15 12:34:00,68.5,40.5,29.75,NW,320,0.0,0.0,36,0.00,,,0.00,Wunderground v.1.15,2013-05-15 17:34:00,
2013-05-15 12:40:00,68.9,42.9,29.74,NW,309,0.0,0.0,39,0.00,,,0.00,Wunderground v.1.15,2013-05-15 17:40:00,
2013-05-15 12:46:00,68.9,40.8,29.74,NW,304,0.0,0.0,36,0.00,,,0.00,Wunderground v.1.15,2013-05-15 17:46:00,
2013-05-15 12:51:00,69.1,41.7,29.75,WNW,285,0.0,0.0,37,0.00,,,0.00,Wunderground v.1.15,2013-05-15 17:51:00,
2013-05-15 12:57:00,69.4,39.8,29.75,NW,315,0.0,0.0,34,0.00,,,0.00,Wunderground v.1.15,2013-05-15 17:57:00,
2013-05-15 13:02:00,69.9,43.1,29.75,NNW,329,0.0,0.0,38,0.00,,,0.00,Wunderground v.1.15,2013-05-15 18:02:00,
2013-05-15 13:08:00,70.4,42.9,29.75,WNW,284,0.0,0.0,37,0.00,,,0.00,Wunderground v.1.15,2013-05-15 18:08:00,
2013-05-15 13:13:00,70.7,44.5,29.75,WNW,284,0.0,0.0,39,0.00,,,0.00,Wunderground v.1.15,2013-05-15 18:13:00,
2013-05-15 13:18:00,70.6,42.3,29.74,West,265,0.0,0.0,36,0.00,,,0.00,Wunderground v.1.15,2013-05-15 18:18:00,
2013-05-15 13:23:00,70.4,42.2,29.75,WNW,289,0.0,0.0,36,0.00,,,0.00,Wunderground v.1.15,2013-05-15 18:23:00,
2013-05-15 13:29:00,70.3,43.5,29.74,West,278,0.0,0.0,38,0.00,,,0.00,Wunderground v.1.15,2013-05-15 18:29:00,
2013-05-15 13:34:00,70.3,39.8,29.74,NNW,333,0.0,0.0,33,0.00,,,0.00,Wunderground v.1.15,2013-05-15 18:34:00,
2013-05-15 13:40:00,70.5,40.0,29.74,NNW,335,0.0,0.0,33,0.00,,,0.00,Wunderground v.1.15,2013-05-15 18:40:00,
2013-05-15 13:45:00,71.0,41.2,29.74,West,281,0.0,0.0,34,0.00,,,0.00,Wunderground v.1.15,2013-05-15 18:45:00,
2013-05-15 13:51:00,71.0,40.4,29.73,NW,314,0.0,0.0,33,0.00,,,0.00,Wunderground v.1.15,2013-05-15 18:51:00,
2013-05-15 13:57:00,71.2,42.1,29.74,West,276,0.0,0.0,35,0.00,,,0.00,Wunderground v.1.15,2013-05-15 18:57:00,
2013-05-15 14:02:00,71.4,44.5,29.74,SSW,203,0.0,0.0,38,0.00,,,0.00,Wunderground v.1.15,2013-05-15 19:02:00,
2013-05-15 14:08:00,71.6,43.2,29.74,WSW,254,0.0,0.0,36,0.00,,,0.00,Wunderground v.1.15,2013-05-15 19:08:00,
2013-05-15 14:13:00,71.8,46.2,29.74,West,269,0.0,0.0,40,0.00,,,0.00,Wunderground v.1.15,2013-05-15 19:13:00,
2013-05-15 14:19:00,72.1,43.7,29.74,West,279,0.0,0.0,36,0.00,,,0.00,Wunderground v.1.15,2013-05-15 19:19:00,
2013-05-15 14:24:00,72.2,42.3,29.73,SW,234,0.0,0.0,34,0.00,,,0.00,Wunderground v.1.15,2013-05-15 19:24:00,
2013-05-15 14:30:00,73.0,45.2,29.73,WNW,286,0.0,0.0,37,0.00,,,0.00,Wunderground v.1.15,2013-05-15 19:30:00,
2013-05-15 14:35:00,73.1,43.1,29.73,WNW,286,0.0,0.0,34,0.00,,,0.00,Wunderground v.1.15,2013-05-15 19:35:00,
2013-05-15 14:41:00,73.8,43.7,29.73,West,273,0.0,0.0,34,0.00,,,0.00,Wunderground v.1.15,2013-05-15 19:41:00,
2013-05-15 14:46:00,73.9,43.0,29.72,West,273,0.0,0.0,33,0.00,,,0.00,Wunderground v.1.15,2013-05-15 19:46:00,
2013-05-15 14:52:00,73.9,43.8,29.72,West,281,0.0,0.0,34,0.00,,,0.00,Wunderground v.1.15,2013-05-15 19:52:00,
2013-05-15 14:58:00,74.0,40.6,29.72,NNW,327,0.0,0.0,30,0.00,,,0.00,Wunderground v.1.15,2013-05-15 19:58:00,
2013-05-15 15:03:00,74.5,43.5,29.72,NW,324,0.0,0.0,33,0.00,,,0.00,Wunderground v.1.15,2013-05-15 20:03:00,
2013-05-15 15:09:00,74.4,40.1,29.72,West,281,0.0,0.0,29,0.00,,,0.00,Wunderground v.1.15,2013-05-15 20:09:00,
2013-05-15 15:15:00,74.2,44.0,29.72,WSW,255,0.0,0.0,34,0.00,,,0.00,Wunderground v.1.15,2013-05-15 20:15:00,
2013-05-15 15:21:00,74.2,43.2,29.72,WSW,242,0.0,0.0,33,0.00,,,0.00,Wunderground v.1.15,2013-05-15 20:21:00,
2013-05-15 15:27:00,74.5,42.7,29.72,WNW,300,0.0,0.0,32,0.00,,,0.00,Wunderground v.1.15,2013-05-15 20:27:00,
2013-05-15 15:32:00,74.4,44.2,29.72,WSW,250,0.0,0.0,34,0.00,,,0.00,Wunderground v.1.15,2013-05-15 20:32:00,
2013-05-15 15:37:00,74.5,42.7,29.71,WNW,282,0.0,0.0,32,0.00,,,0.00,Wunderground v.1.15,2013-05-15 20:37:00,
2013-05-15 15:44:00,75.1,42.4,29.71,West,273,0.0,0.0,31,0.00,,,0.00,Wunderground v.1.15,2013-05-15 20:44:00,
2013-05-15 15:50:00,75.0,41.5,29.71,NW,325,0.0,0.0,30,0.00,,,0.00,Wunderground v.1.15,2013-05-15 20:50:00,
2013-05-15 15:55:00,75.2,44.1,29.70,West,265,0.0,0.0,33,0.00,,,0.00,Wunderground v.1.15,2013-05-15 20:55:00,
2013-05-15 16:00:00,75.0,41.5,29.70,WSW,249,0.0,0.0,30,0.00,,,0.00,Wunderground v.1.15,2013-05-15 21:00:00,
2013-05-15 16:06:00,75.4,39.1,29.71,NW,306,0.0,0.0,27,0.00,,,0.00,Wunderground v.1.15,2013-05-15 21:06:00,
2013-05-15 16:11:00,75.4,45.8,29.70,WSW,254,0.0,0.0,35,0.00,,,0.00,Wunderground v.1.15,2013-05-15 21:11:00,
2013-05-15 16:16:00,74.8,41.3,29.70,West,273,0.0,0.0,30,0.00,,,0.00,Wunderground v.1.15,2013-05-15 21:16:00,
2013-05-15 16:22:00,74.6,41.1,29.71,WNW,288,0.0,0.0,30,0.00,,,0.00,Wunderground v.1.15,2013-05-15 21:22:00,
2013-05-15 16:28:00,74.6,45.1,29.70,WSW,254,0.0,0.0,35,0.00,,,0.00,Wunderground v.1.15,2013-05-15 21:28:00,
2013-05-15 16:33:00,74.7,40.3,29.70,WNW,292,0.0,0.0,29,0.00,,,0.00,Wunderground v.1.15,2013-05-15 21:33:00,
2013-05-15 16:39:00,75.3,40.8,29.70,NW,326,0.0,0.0,29,0.00,,,0.00,Wunderground v.1.15,2013-05-15 21:39:00,
2013-05-15 16:45:00,75.5,44.4,29.70,WNW,296,0.0,0.0,33,0.00,,,0.00,Wunderground v.1.15,2013-05-15 21:45:00,
2013-05-15 16:51:00,75.3,46.5,29.71,West,277,0.0,0.0,36,0.00,,,0.00,Wunderground v.1.15,2013-05-15 21:51:00,
2013-05-15 16:57:00,74.6,45.1,29.71,West,271,0.0,0.0,35,0.00,,,0.00,Wunderground v.1.15,2013-05-15 21:57:00,
2013-05-15 17:02:00,74.5,45.0,29.70,WSW,246,0.0,0.0,35,0.00,,,0.00,Wunderground v.1.15,2013-05-15 22:02:00,
2013-05-15 17:08:00,74.5,45.0,29.70,WSW,250,0.0,0.0,35,0.00,,,0.00,Wunderground v.1.15,2013-05-15 22:08:00,
2013-05-15 17:13:00,74.4,46.4,29.70,SW,232,0.0,0.0,37,0.00,,,0.00,Wunderground v.1.15,2013-05-15 22:13:00,
2013-05-15 17:19:00,73.4,45.5,29.71,West,260,0.0,0.0,37,0.00,,,0.00,Wunderground v.1.15,2013-05-15 22:19:00,
2013-05-15 17:24:00,73.4,46.9,29.71,WSW,248,0.0,0.0,39,0.00,,,0.00,Wunderground v.1.15,2013-05-15 22:24:00,
2013-05-15 17:30:00,72.7,46.3,29.71,West,276,0.0,0.0,39,0.00,,,0.00,Wunderground v.1.15,2013-05-15 22:30:00,
2013-05-15 17:35:00,73.3,47.5,29.71,SW,217,0.0,0.0,40,0.00,,,0.00,Wunderground v.1.15,2013-05-15 22:35:00,
2013-05-15 17:41:00,74.0,49.4,29.71,WSW,252,0.0,0.0,42,0.00,,,0.00,Wunderground v.1.15,2013-05-15 22:41:00,
2013-05-15 17:47:00,74.4,47.1,29.70,West,266,0.0,0.0,38,0.00,,,0.00,Wunderground v.1.15,2013-05-15 22:47:00,
2013-05-15 17:53:00,74.6,43.6,29.70,West,274,0.0,0.0,33,0.00,,,0.00,Wunderground v.1.15,2013-05-15 22:53:00,
2013-05-15 17:59:00,74.3,44.1,29.70,West,273,0.0,0.0,34,0.00,,,0.00,Wunderground v.1.15,2013-05-15 22:59:00,
2013-05-15 18:04:00,74.5,47.2,29.70,WSW,249,0.0,0.0,38,0.00,,,0.00,Wunderground v.1.15,2013-05-15 23:04:00,
2013-05-15 18:09:00,74.1,47.6,29.70,WSW,252,0.0,0.0,39,0.00,,,0.00,Wunderground v.1.15,2013-05-15 23:09:00,
2013-05-15 18:15:00,73.9,47.4,29.70,SW,234,0.0,0.0,39,0.00,,,0.00,Wunderground v.1.15,2013-05-15 23:15:00,
2013-05-15 18:21:00,74.1,44.7,29.70,West,277,0.0,0.0,35,0.00,,,0.00,Wunderground v.1.15,2013-05-15 23:21:00,
2013-05-15 18:26:00,74.3,46.3,29.70,WNW,299,0.0,0.0,37,0.00,,,0.00,Wunderground v.1.15,2013-05-15 23:26:00,
2013-05-15 18:31:00,74.2,45.5,29.70,West,279,0.0,0.0,36,0.00,,,0.00,Wunderground v.1.15,2013-05-15 23:31:00,
2013-05-15 18:37:00,74.1,43.1,29.70,West,277,0.0,0.0,33,0.00,,,0.00,Wunderground v.1.15,2013-05-15 23:37:00,
2013-05-15 18:43:00,74.1,42.3,29.70,WNW,292,0.0,0.0,32,0.00,,,0.00,Wunderground v.1.15,2013-05-15 23:43:00,
2013-05-15 18:49:00,74.2,45.5,29.71,WNW,286,0.0,0.0,36,0.00,,,0.00,Wunderground v.1.15,2013-05-15 23:49:00,
2013-05-15 18:54:00,74.3,44.1,29.71,West,259,0.0,0.0,34,0.00,,,0.00,Wunderground v.1.15,2013-05-15 23:54:00,
2013-05-15 19:00:00,73.9,47.4,29.71,WSW,248,0.0,0.0,39,0.00,,,0.00,Wunderground v.1.15,2013-05-16 00:00:00,
2013-05-15 19:05:00,73.2,48.7,29.70,WSW,253,0.0,0.0,42,0.00,,,0.00,Wunderground v.1.15,2013-05-16 00:05:00,
2013-05-15 19:11:00,72.7,50.7,29.71,West,259,0.0,0.0,46,0.00,,,0.00,Wunderground v.1.15,2013-05-16 00:11:00,
2013-05-15 19:17:00,72.3,49.2,29.70,WSW,246,0.0,0.0,44,0.00,,,0.00,Wunderground v.1.15,2013-05-16 00:17:00,
2013-05-15 19:23:00,71.6,50.3,29.71,WSW,244,0.0,0.0,47,0.00,,,0.00,Wunderground v.1.15,2013-05-16 00:23:00,
2013-05-15 19:29:00,71.0,49.7,29.71,West,262,0.0,0.0,47,0.00,,,0.00,Wunderground v.1.15,2013-05-16 00:29:00,
2013-05-15 19:35:00,70.6,49.4,29.71,WSW,251,0.0,0.0,47,0.00,,,0.00,Wunderground v.1.15,2013-05-16 00:35:00,
2013-05-15 19:40:00,70.3,50.2,29.71,WSW,249,0.0,0.0,49,0.00,,,0.00,Wunderground v.1.15,2013-05-16 00:40:00,
2013-05-15 19:46:00,70.0,49.4,29.71,WSW,243,0.0,0.0,48,0.00,,,0.00,Wunderground v.1.15,2013-05-16 00:46:00,
2013-05-15 19:51:00,69.8,49.8,29.71,WSW,244,0.0,0.0,49,0.00,,,0.00,Wunderground v.1.15,2013-05-16 00:51:00,
2013-05-15 19:58:00,69.3,50.4,29.71,WSW,244,0.0,0.0,51,0.00,,,0.00,Wunderground v.1.15,2013-05-16 00:58:00,
2013-05-15 20:03:00,68.7,49.8,29.71,WSW,243,0.0,0.0,51,0.00,,,0.00,Wunderground v.1.15,2013-05-16 01:03:00,
2013-05-15 20:09:00,68.2,49.4,29.72,SSW,200,0.0,0.0,51,0.00,,,0.00,Wunderground v.1.15,2013-05-16 01:09:00,
2013-05-15 20:15:00,67.6,48.8,29.72,SW,235,0.0,0.0,51,0.00,,,0.00,Wunderground v.1.15,2013-05-16 01:15:00,
2013-05-15 20:21:00,66.9,48.2,29.72,SW,224,0.0,0.0,51,0.00,,,0.00,Wunderground v.1.15,2013-05-16 01:21:00,
2013-05-15 20:26:00,66.5,48.8,29.72,WSW,248,0.0,0.0,53,0.00,,,0.00,Wunderground v.1.15,2013-05-16 01:26:00,
2013-05-15 20:32:00,65.9,48.3,29.72,WSW,242,0.0,0.0,53,0.00,,,0.00,Wunderground v.1.15,2013-05-16 01:32:00,
2013-05-15 20:38:00,65.6,48.0,29.73,WSW,249,0.0,0.0,53,0.00,,,0.00,Wunderground v.1.15,2013-05-16 01:38:00,
2013-05-15 20:43:00,65.3,48.7,29.73,WSW,238,0.0,0.0,55,0.00,,,0.00,Wunderground v.1.15,2013-05-16 01:43:00,
2013-05-15 20:48:00,65.0,48.9,29.73,WSW,247,0.0,0.0,56,0.00,,,0.00,Wunderground v.1.15,2013-05-16 01:48:00,
2013-05-15 20:54:00,64.7,48.6,29.73,West,262,0.0,0.0,56,0.00,,,0.00,Wunderground v.1.15,2013-05-16 01:54:00,
2013-05-15 21:00:00,65.3,49.2,29.73,WSW,251,0.0,0.0,56,0.00,,,0.00,Wunderground v.1.15,2013-05-16 02:00:00,
2013-05-15 21:05:00,65.0,48.9,29.74,WSW,254,0.0,0.0,56,0.00,,,0.00,Wunderground v.1.15,2013-05-16 02:05:00,
2013-05-15 21:11:00,64.7,49.1,29.74,WSW,252,0.0,0.0,57,0.00,,,0.00,Wunderground v.1.15,2013-05-16 02:11:00,
2013-05-15 21:16:00,64.4,48.8,29.74,SW,232,0.0,0.0,57,0.00,,,0.00,Wunderground v.1.15,2013-05-16 02:16:00,
2013-05-15 21:22:00,63.8,49.2,29.74,WSW,249,0.0,0.0,59,0.00,,,0.00,Wunderground v.1.15,2013-05-16 02:22:00,
2013-05-15 21:28:00,63.7,49.1,29.74,WSW,246,0.0,0.0,59,0.00,,,0.00,Wunderground v.1.15,2013-05-16 02:28:00,
2013-05-15 21:34:00,63.8,49.2,29.75,WSW,248,0.0,0.0,59,0.00,,,0.00,Wunderground v.1.15,2013-05-16 02:34:00,
2013-05-15 21:40:00,63.7,49.1,29.74,WSW,250,0.0,0.0,59,0.00,,,0.00,Wunderground v.1.15,2013-05-16 02:40:00,
2013-05-15 21:46:00,63.3,49.2,29.75,WSW,251,0.0,0.0,60,0.00,,,0.00,Wunderground v.1.15,2013-05-16 02:46:00,
2013-05-15 21:51:00,62.9,48.8,29.74,WSW,242,0.0,0.0,60,0.00,,,0.00,Wunderground v.1.15,2013-05-16 02:51:00,
2013-05-15 21:57:00,62.4,48.8,29.75,WSW,247,0.0,0.0,61,0.00,,,0.00,Wunderground v.1.15,2013-05-16 02:57:00,
2013-05-15 22:03:00,61.9,48.7,29.75,WSW,243,0.0,0.0,62,0.00,,,0.00,Wunderground v.1.15,2013-05-16 03:03:00,
2013-05-15 22:09:00,61.4,48.7,29.75,WSW,246,0.0,0.0,63,0.00,,,0.00,Wunderground v.1.15,2013-05-16 03:09:00,
2013-05-15 22:15:00,61.3,48.6,29.75,WSW,241,0.0,0.0,63,0.00,,,0.00,Wunderground v.1.15,2013-05-16 03:15:00,
2013-05-15 22:21:00,61.2,48.5,29.75,WSW,246,0.0,0.0,63,0.00,,,0.00,Wunderground v.1.15,2013-05-16 03:21:00,
2013-05-15 22:27:00,61.1,48.8,29.75,WSW,245,0.0,0.0,64,0.00,,,0.00,Wunderground v.1.15,2013-05-16 03:27:00,
2013-05-15 22:33:00,60.7,48.4,29.75,WSW,241,0.0,0.0,64,0.00,,,0.00,Wunderground v.1.15,2013-05-16 03:33:00,
2013-05-15 22:38:00,60.5,48.3,29.75,WSW,238,0.0,0.0,64,0.00,,,0.00,Wunderground v.1.15,2013-05-16 03:38:00,
2013-05-15 22:45:00,60.2,48.4,29.75,WSW,245,0.0,0.0,65,0.00,,,0.00,Wunderground v.1.15,2013-05-16 03:45:00,
2013-05-15 22:51:00,60.0,48.2,29.75,WSW,245,0.0,0.0,65,0.00,,,0.00,Wunderground v.1.15,2013-05-16 03:51:00,
2013-05-15 22:57:00,60.0,48.6,29.75,WSW,248,0.0,0.0,66,0.00,,,0.00,Wunderground v.1.15,2013-05-16 03:57:00,
2013-05-15 23:01:00,59.7,48.3,29.75,West,264,0.0,0.0,66,0.00,,,0.00,Wunderground v.1.15,2013-05-16 04:01:00,
2013-05-15 23:02:00,59.6,48.2,29.75,WSW,247,0.0,0.0,66,0.00,,,0.00,Wunderground v.1.15,2013-05-16 04:02:00,
2013-05-15 23:03:00,59.5,48.1,29.75,WSW,252,0.0,0.0,66,0.00,,,0.00,Wunderground v.1.15,2013-05-16 04:03:00,
2013-05-15 23:04:00,59.5,48.1,29.75,WSW,252,0.0,0.0,66,0.00,,,0.00,Wunderground v.1.15,2013-05-16 04:04:00,
2013-05-15 23:10:00,59.4,48.0,29.75,WSW,254,0.0,0.0,66,0.00,,,0.00,Wunderground v.1.15,2013-05-16 04:10:00,
2013-05-15 23:14:00,59.3,47.9,29.75,WSW,257,0.0,0.0,66,0.00,,,0.00,Wunderground v.1.15,2013-05-16 04:14:00,
2013-05-15 23:19:00,59.2,47.8,29.75,West,262,0.0,0.0,66,0.00,,,0.00,Wunderground v.1.15,2013-05-16 04:19:00,
2013-05-15 23:25:00,59.5,47.7,29.75,West,267,0.0,0.0,65,0.00,,,0.00,Wunderground v.1.15,2013-05-16 04:25:00,
2013-05-15 23:31:00,59.9,47.7,29.75,West,274,0.0,0.0,64,0.00,,,0.00,Wunderground v.1.15,2013-05-16 04:31:00,
2013-05-15 23:37:00,59.9,47.7,29.77,NE,40,0.0,0.0,64,0.00,,,0.00,Wunderground v.1.15,2013-05-16 04:37:00,
2013-05-15 23:43:00,58.8,47.9,29.77,NE,34,0.0,0.0,67,0.00,,,0.00,Wunderground v.1.15,2013-05-16 04:43:00,
2013-05-15 23:49:00,58.7,47.8,29.77,North,360,0.0,0.0,67,0.00,,,0.00,Wunderground v.1.15,2013-05-16 04:49:00,
2013-05-15 23:54:00,58.2,47.7,29.78,NNW,347,0.0,0.0,68,0.00,,,0.00,Wunderground v.1.15,2013-05-16 04:54:00,